This is the latest recevied weather packets stored in our database for station/object WB5CFT. If no packets are shown the sender has not sent any weather packets the latest 10 day(s).
| Time | Temp. | Humidity | Pressure | Rain* | Wind** | Luminosity | Snow |
|---|---|---|---|---|---|---|---|
| 1777926461 | 30° C | 20% | 1010.6 hPa | 0 mm | - | 778 W/m² | - |
| 1777926159 | 30° C | 20% | 1010.6 hPa | 0 mm | - | 761 W/m² | - |
| 1777925855 | 30° C | 20% | 1010.7 hPa | 0 mm | - | 847 W/m² | - |
| 1777925553 | 29.44° C | 20% | 1011.1 hPa | 0 mm | - | 804 W/m² | - |
| 1777925250 | 29.44° C | 19% | 1011.1 hPa | 0 mm | - | 600 W/m² | - |
| 1777924946 | 29.44° C | 19% | 1011.2 hPa | 0 mm | - | 588 W/m² | - |
| 1777924642 | 30° C | 21% | 1011.3 hPa | 0 mm | - | 617 W/m² | - |
| 1777924339 | 28.89° C | 20% | 1011.4 hPa | 0 mm | - | 737 W/m² | - |
| 1777924036 | 28.89° C | 20% | 1011.4 hPa | 0 mm | - | 570 W/m² | - |
| 1777923732 | 28.89° C | 21% | 1011.6 hPa | 0 mm | - | 396 W/m² | - |
| 1777923428 | 28.89° C | 21% | 1011.5 hPa | 0 mm | - | 527 W/m² | - |
| 1777923126 | 28.89° C | 22% | 1011.7 hPa | 0 mm | - | 571 W/m² | - |
| 1777922824 | 28.33° C | 23% | 1011.6 hPa | 0 mm | - | 557 W/m² | - |
| 1777922522 | 28.89° C | 23% | 1011.7 hPa | 0 mm | - | 473 W/m² | - |
| 1777922220 | 28.89° C | 22% | 1011.6 hPa | 0 mm | - | 463 W/m² | - |
| 1777921916 | 28.33° C | 23% | 1011.6 hPa | 0 mm | - | 408 W/m² | - |
| 1777921612 | 28.33° C | 22% | 1011.8 hPa | 0 mm | - | 457 W/m² | - |
| 1777921309 | 28.89° C | 24% | 1011.9 hPa | 0 mm | - | 337 W/m² | - |
| 1777921005 | 28.33° C | 23% | 1012.1 hPa | 0 mm | - | 583 W/m² | - |
| 1777920702 | 28.89° C | 23% | 1012.2 hPa | 0 mm | - | 598 W/m² | - |
| 1777920398 | 28.89° C | 23% | 1012.2 hPa | 0 mm | - | 618 W/m² | - |
| 1777920093 | 28.89° C | 24% | 1012.2 hPa | 0 mm | - | 552 W/m² | - |
| 1777919790 | 28.89° C | 22% | 1012.3 hPa | 0 mm | - | 491 W/m² | - |
| 1777919488 | 28.89° C | 25% | 1012.2 hPa | 0 mm | - | 755 W/m² | - |
| 1777919186 | 28.33° C | 24% | 1012.2 hPa | 0 mm | - | 670 W/m² | - |
* Rain latest hour (hover to see other rain measurements)
** Current wind speed in m/s (hover to see current wind gust speed)